Temperature
14 14 14 14 14 13 13 13 13 13 13 13 13 13 12 12 12 12 12 12 12 12 12 12 12 12 12 12 12 12 12 12 12 12 12 11 11 11 11 11 11 11 11
14 14 14 13 13 13 13 13 13 13 13 13 13 12 12 12 12 12 12 12 12 12 12 12 12 12 12 12 11 11 11 11 11 11 11 11 11 11 11 11 11 11 11
14 13 13 13 13 13 13 13 13 13 13 12 12 12 12 12 12 12 12 12 12 12 12 12 11 11 11 11 11 11 11 11 11 11 11 11 11 11 11 11 11 11 11
13 13 13 13 13 13 12 12 12 12 12 12 12 12 12 12 11 11 11 11 11 11 11 11 11 11 11 11 11 11 11 11 11 11 11 10 11 11 11 10 10 10 10
13 13 13 13 12 12 12 12 12 12 12 12 12 12 12 11 11 11 11 11 11 11 11 11 11 11 11 11 11 11 11 10 10 10 10 10 10 10 10 10 10 10 10
12 13 13 12 12 12 12 12 12 12 11 11 11 11 11 11 11 11 11 11 10 10 10 10 10 10 10 11 11 11 10 10 10 10 10 10 10 10 10 10 10 10 10
12 12 12 12 12 11 11 11 11 11 11 11 11 11 11 11 11 11 11 10 10 10 10 10 10 10 10 10 10 10 10 10 10 10 10 10 10 10 10 10 10 10 10
11 11 11 11 11 11 11 11 11 11 11 10 10 10 10 10 10 10 10 10 10 10 10 10 10 10 10 10 9 9 10 10 10 10 10 10 10 10 9 9 9 9 9
11 11 11 11 11 11 10 10 10 10 10 10 10 10 10 10 10 10 10 9 9 9 9 9 9 9 9 9 9 9 9 9 9 10 10 10 9 9 9 9 9 9 9
10 10 10 10 10 10 10 10 10 10 9 9 9 9 9 9 9 9 9 9 9 9 9 9 9 9 9 9 9 9 9 9 9 9 9 9 9 9 9 9 9 9 9
10 10 10 10 10 10 10 10 9 9 9 9 9 9 9 9 9 9 9 9 8 8 8 8 8 9 9 9 9 8 8 9 8 8 8 8 8 8 9 9 9 9 9
10 10 10 9 9 9 9 9 9 9 9 8 8 8 8 8 8 8 8 8 8 8 8 8 8 8 8 8 8 8 8 8 8 8 8 8 8 8 8 8 8 8 8
9 9 9 9 9 9 9 9 8 8 8 8 8 7 7 7 8 8 8 8 8 7 7 7 7 7 8 8 8 8 8 8 7 7 7 8 8 8 8 8 8 8 8
8 8 8 8 8 8 8 8 8 8 8 7 7 7 7 7 7 7 7 7 7 7 7 7 7 7 7 7 7 7 7 7 7 7 7 7 7 7 7 7 7 7 7
8 8 8 7 8 8 8 8 7 7 7 7 7 7 6 6 6 6 6 6 6 6 6 6 6 6 6 6 6 6 6 6 6 6 6 6 7 6 7 7 7 6 6
7 7 7 7 7 7 7 7 7 7 7 7 7 6 6 6 6 6 6 6 6 6 5 5 5 5 5 5 5 5 5 5 5 5 6 6 6 6 6 6 6 6 6
7 7 6 6 6 6 6 6 6 6 6 6 6 6 6 6 6 5 5 5 5 5 4 4 5 4 4 4 4 5 5 5 5 5 5 5 5 5 5 5 5 5 5
6 6 6 6 6 6 6 6 6 5 5 5 5 5 5 5 5 5 5 4 4 4 4 4 4 4 4 4 4 4 4 4 4 4 4 4 5 5 5 5 5 5 5
6 5 5 5 5 5 5 5 5 5 5 5 5 5 5 5 4 4 4 4 4 3 3 3 3 3 3 3 3 3 3 3 3 4 4 4 4 4 4 4 4 4 4
5 5 5 5 5 5 5 5 5 4 4 4 4 4 4 4 4 4 4 3 3 3 3 3 3 3 3 3 3 3 3 3 3 3 3 3 4 4 4 3 4 4 4
5 5 5 4 4 4 4 4 4 4 4 4 4 4 4 4 3 3 3 3 3 3 3 3 2 2 2 2 2 2 2 2 2 3 3 3 3 3 3 3 3 3 3
4 4 4 4 4 4 4 4 3 3 3 3 3 3 3 3 3 3 3 3 3 2 2 2 2 2 2 2 2 2 2 2 2 2 2 2 2 2 2 2 2 2 3
4 4 4 3 3 3 3 3 3 3 3 3 3 3 2 2 2 2 2 2 2 2 2 2 2 2 1 1 1 1 1 1 1 1 1 1 1 2 2 2 2 2 2
4 3 3 3 3 3 3 3 3 3 2 2 2 2 2 2 2 2 2 2 2 1 1 1 1 1 1 1 1 1 1 1 1 1 1 1 1 1 1 1 1 1 1
3 3 3 3 3 3 2 2 2 2 2 2 2 1 1 1 1 1 1 1 1 1 1 1 1 1 1 1 1 1 1 1 1 1 1 1 1 1 1 1 1 1 1
3 2 2 2 2 2 2 2 2 2 1 1 1 1 1 1 0 0 0 0 0 0 0 0 0 1 1 1 1 1 1 1 1 1 1 0 0 0 0 0 0 0 0
Wind_Speed
2 2 2 3 3 3 3 4 4 4 4 5 5 4 4 4 4 4 4 5 5 5 5 5 5 4 3 3 3 3 3 3 3 2 1 2 2 2 1 1 1 1 2
2 2 2 2 2 2 3 3 3 3 4 4 4 4 4 4 4 4 4 5 5 5 5 5 5 4 4 3 3 3 3 4 4 3 2 2 2 2 1 1 1 1 2
2 2 2 2 2 3 2 2 2 2 3 3 3 4 4 4 4 5 5 5 5 5 5 5 6 5 5 4 4 4 4 4 4 4 3 2 2 2 2 2 2 2 2
2 2 2 2 3 3 3 3 2 2 2 2 2 3 4 4 4 4 4 5 5 5 4 5 5 5 5 5 4 5 4 4 4 4 3 3 3 2 3 3 3 3 2
3 3 3 2 3 3 3 2 2 2 2 1 2 2 2 2 2 3 4 5 5 5 5 4 4 3 3 3 4 5 5 5 5 4 4 3 3 3 4 4 4 3 3
4 3 3 2 2 3 3 2 1 1 2 2 2 1 1 1 1 2 4 5 5 5 5 5 4 5 4 4 4 4 5 6 6 6 5 5 5 5 4 4 4 4 4
3 3 3 3 2 3 3 2 2 2 2 2 2 2 2 1 1 1 3 4 5 5 5 4 4 4 5 6 6 7 7 7 7 7 7 7 6 5 5 6 5 5 5
2 2 2 2 2 2 3 3 3 3 2 3 2 2 2 1 1 2 4 5 4 5 5 5 5 5 4 5 6 6 7 8 8 8 8 7 6 6 6 6 6 6 6
1 2 2 2 2 2 3 3 3 3 3 3 3 3 3 2 1 1 4 4 4 5 5 5 5 6 3 4 6 6 6 6 7 8 8 7 5 4 5 5 5 5 5
2 2 2 2 2 3 3 3 2 2 3 3 2 3 3 3 1 1 4 4 4 4 4 4 3 4 3 4 6 7 8 7 6 7 8 8 8 7 7 8 7 6 6
2 1 1 2 2 3 3 2 2 2 2 3 3 3 3 2 1 1 2 3 4 4 4 4 3 3 3 4 6 7 7 6 7 7 6 6 6 6 7 8 7 7 7
1 1 1 1 1 2 2 2 3 3 3 3 3 3 3 2 2 1 2 4 5 4 4 4 2 2 4 5 5 5 4 5 6 6 6 6 6 6 6 7 8 8 8
1 2 2 2 2 2 2 3 3 3 3 3 3 3 3 2 1 1 3 4 4 4 4 3 3 2 4 5 5 5 5 5 5 6 6 6 5 6 5 5 7 7 8
2 3 3 2 2 2 2 2 3 3 3 3 4 4 3 3 2 2 3 3 4 5 5 3 4 4 5 4 4 5 5 5 5 6 6 6 5 5 5 5 5 6 6
3 3 3 3 3 2 2 2 3 3 3 4 4 4 4 4 2 1 3 3 3 3 4 4 4 3 3 4 4 4 4 5 5 5 5 5 6 6 6 5 5 5 6
3 3 3 3 3 3 3 2 1 3 2 3 3 4 4 3 2 2 3 4 4 4 3 4 4 4 4 4 4 4 4 4 5 5 5 5 6 6 6 5 5 6 7
5 4 3 3 3 4 4 4 3 3 4 4 4 4 5 5 4 4 5 5 5 4 4 4 4 4 4 4 4 5 4 4 4 5 5 5 5 5 5 5 5 5 6
5 4 4 4 4 4 4 4 4 4 4 3 4 5 5 5 5 5 5 5 4 4 4 5 5 5 5 5 4 5 4 4 4 4 5 5 4 4 4 5 5 6 6
5 4 4 4 4 4 4 4 4 5 4 4 3 3 4 5 5 5 5 4 4 4 4 5 5 5 5 5 4 5 5 4 4 4 4 4 4 4 4 4 5 6 6
4 4 4 4 4 4 4 4 4 4 5 5 4 3 2 3 3 3 4 4 5 5 5 5 5 5 5 5 5 5 4 4 4 4 4 4 4 4 5 5 5 5 6
4 4 4 4 4 4 4 4 5 5 5 5 4 3 3 4 4 4 4 4 5 5 5 5 5 5 5 5 5 5 5 4 4 4 4 4 4 5 5 5 5 5 5
4 4 4 4 4 4 4 4 4 5 5 5 4 4 4 5 5 4 4 5 5 5 5 5 5 5 5 5 5 5 5 5 5 5 5 5 5 5 5 6 5 5 5
4 4 4 4 4 4 4 4 4 4 4 4 4 4 4 5 5 4 4 4 4 4 5 5 5 5 5 5 5 5 6 6 6 6 6 6 6 6 6 6 7 7 6
4 4 4 4 4 4 5 5 4 4 4 4 4 5 5 5 5 5 5 5 5 5 5 5 6 7 8 7 6 6 6 6 7 7 8 7 7 6 6 6 7 7 7
4 4 4 4 4 4 5 5 5 5 4 4 5 5 5 5 5 5 5 5 5 6 6 6 6 6 8 9 8 7 6 6 7 8 8 7 7 7 7 7 6 6 6
3 4 4 4 4 4 4 5 5 5 5 5 5 5 5 5 5 5 5 5 5 6 6 6 7 7 8 8 8 7 6 7 7 8 8 7 6 6 6 6 7 6 6
Wind_Direction
224 236 237 224 226 229 236 242 243 238 232 232 228 232 231 229 227 224 231 233 236 237 233 234 234 232 222 223 232 241 247 241 244 258 224 203 191 225 160 248 214 210 182
232 248 256 240 220 227 235 242 248 245 235 230 229 228 227 230 228 230 234 236 236 238 237 233 231 220 220 223 225 231 235 240 237 241 234 219 229 231 230 245 249 251 270
230 243 259 259 248 243 243 239 236 236 234 226 221 221 222 226 222 223 226 231 237 240 237 235 232 219 218 219 221 230 231 230 231 234 241 219 236 230 240 244 242 239 260
234 241 250 265 269 263 253 236 227 226 226 224 219 220 222 225 225 228 230 233 234 235 237 237 235 225 224 224 222 229 228 223 219 227 228 221 225 235 237 242 244 235 244
236 243 251 262 269 264 255 240 218 214 225 235 229 220 214 226 243 254 242 239 236 233 231 232 234 237 256 243 234 230 225 224 220 223 227 231 232 224 237 242 246 246 241
242 246 249 250 254 258 250 243 227 207 214 219 218 225 219 229 44 308 269 242 237 233 230 229 232 226 221 224 238 246 242 230 226 224 228 231 242 239 238 243 244 249 255
251 258 256 244 232 238 238 233 226 217 214 220 224 224 237 230 113 248 267 258 242 237 237 235 233 233 236 235 223 223 233 239 244 242 237 236 242 240 240 241 242 245 253
252 266 267 251 241 237 230 231 233 234 225 230 235 241 244 237 109 244 256 250 254 249 244 244 241 242 238 250 245 236 235 233 234 239 244 249 252 249 243 246 250 252 256
264 266 260 245 233 230 225 228 235 237 241 243 242 245 251 239 164 261 260 246 249 254 252 248 250 246 232 248 247 243 241 240 223 230 249 258 264 255 243 234 239 239 247
267 265 259 245 231 227 227 228 233 230 238 242 243 246 250 263 112 261 275 249 251 254 254 250 245 254 254 236 242 244 244 246 244 228 232 236 239 227 216 228 233 237 245
275 275 268 246 236 232 231 224 216 218 225 236 243 247 252 268 242 229 277 263 262 259 256 252 246 215 246 248 251 252 255 259 247 243 239 237 235 235 224 227 233 236 241
287 281 277 272 258 231 221 223 218 215 226 240 250 253 255 252 267 253 264 277 291 265 261 263 261 213 236 243 246 255 258 259 251 244 239 236 234 234 234 232 236 237 241
283 267 271 269 266 252 233 226 223 221 230 242 248 252 254 254 244 237 244 254 267 268 270 300 306 264 247 239 233 246 241 241 243 242 241 241 240 240 238 237 239 239 241
282 273 267 268 271 254 235 231 230 229 232 238 244 252 255 252 259 264 259 248 237 251 261 248 233 236 238 252 246 235 241 247 247 247 248 246 242 235 233 231 231 231 236
270 276 265 265 258 249 239 237 238 240 244 247 251 254 257 256 270 309 287 282 283 283 284 269 262 257 253 253 250 246 245 244 247 252 253 251 242 236 235 231 231 233 235
268 271 271 256 250 244 241 245 221 232 219 236 260 267 265 276 298 254 255 276 292 294 269 257 258 260 263 264 259 252 247 246 251 255 256 255 249 241 236 231 231 233 237
269 268 267 262 248 246 243 241 249 236 216 223 235 246 257 271 266 257 254 250 249 244 250 257 260 264 267 268 267 262 257 255 257 256 255 257 256 250 242 234 232 237 241
264 263 258 258 254 247 244 242 245 250 249 245 226 224 242 252 254 251 250 244 242 229 245 253 259 262 264 267 269 269 265 258 256 257 259 263 255 252 253 245 237 237 241
266 264 259 258 256 250 243 242 243 246 251 254 259 230 218 238 234 231 230 243 254 253 252 257 262 265 266 268 270 271 269 264 261 257 259 263 256 252 252 255 253 243 240
267 273 271 262 258 250 243 241 243 245 249 254 255 262 258 253 253 243 237 248 255 257 258 260 261 264 265 267 268 266 266 264 264 261 263 264 256 254 254 255 259 255 244
267 261 256 258 254 252 248 246 247 249 251 255 258 263 274 260 259 260 257 257 260 260 262 264 264 263 263 263 262 261 261 262 262 264 262 262 260 256 256 257 257 259 259
262 259 257 260 264 258 253 252 251 251 254 257 261 253 232 251 260 259 259 260 263 266 264 262 263 264 263 261 263 264 264 264 263 263 263 260 256 254 253 254 254 257 259
260 259 257 258 259 255 249 250 251 252 257 261 262 261 253 253 259 263 264 266 266 268 270 265 262 261 263 263 261 261 264 267 270 271 270 265 259 255 253 252 251 254 253
261 257 256 257 257 254 251 251 250 251 256 263 266 265 262 261 263 266 270 271 272 270 265 264 265 264 263 264 265 264 268 279 282 274 269 266 261 257 255 257 255 253 253
260 259 258 258 257 255 254 254 254 255 257 259 263 268 269 268 266 265 268 270 272 273 274 272 268 269 271 268 266 266 275 282 282 282 273 263 260 257 255 254 255 257 257
258 258 259 257 254 253 253 255 257 260 261 262 263 265 268 269 270 269 269 269 270 272 275 274 277 277 276 273 273 277 274 270 271 279 277 267 262 261 260 258 259 256 257
Height
1524 1524 1524 1524 1525 1525 1525 1525 1525 1525 1526 1526 1526 1527 1527 1528 1528 1528 1528 1528 1529 1529 1529 1530 1530 1530 1530 1530 1530 1531 1531 1531 1532 1532 1532 1531 1531 1530 1530 1529 1529 1528 1527
1522 1522 1522 1522 1522 1522 1523 1522 1522 1522 1523 1523 1523 1524 1524 1524 1525 1525 1525 1525 1526 1526 1526 1527 1527 1527 1527 1528 1528 1528 1529 1529 1529 1529 1530 1529 1529 1529 1528 1527 1527 1526 1525
1520 1520 1520 1520 1521 1521 1521 1520 1520 1520 1520 1520 1520 1520 1521 1521 1522 1522 1522 1522 1523 1523 1523 1523 1524 1524 1525 1525 1525 1526 1526 1526 1527 1527 1527 1527 1527 1527 1526 1526 1526 1525 1524
1518 1518 1518 1518 1518 1518 1518 1518 1518 1517 1518 1517 1517 1518 1518 1518 1519 1519 1519 1519 1519 1520 1520 1520 1521 1521 1522 1522 1522 1523 1523 1524 1524 1524 1525 1525 1525 1525 1525 1524 1524 1524 1523
1515 1515 1515 1515 1515 1515 1515 1515 1515 1515 1515 1515 1515 1515 1515 1515 1515 1516 1516 1516 1516 1517 1517 1517 1517 1517 1518 1519 1519 1520 1520 1521 1521 1521 1522 1522 1522 1522 1522 1522 1522 1522 1521
1513 1513 1512 1512 1512 1512 1513 1513 1512 1512 1512 1512 1512 1512 1512 1512 1511 1512 1513 1513 1513 1513 1513 1514 1514 1514 1514 1515 1515 1516 1517 1517 1518 1518 1518 1519 1519 1519 1519 1519 1520 1519 1519
1510 1510 1510 1509 1509 1509 1510 1510 1510 1509 1509 1510 1510 1510 1509 1509 1509 1509 1509 1510 1510 1510 1510 1510 1510 1510 1510 1511 1511 1512 1512 1513 1514 1515 1515 1515 1516 1516 1516 1517 1516 1516 1516
1507 1507 1507 1506 1506 1506 1506 1507 1507 1507 1507 1507 1507 1507 1506 1506 1506 1505 1506 1506 1506 1506 1506 1507 1507 1507 1507 1507 1508 1508 1508 1509 1509 1510 1511 1511 1512 1513 1513 1513 1513 1513 1514
1505 1504 1504 1503 1503 1503 1503 1503 1503 1504 1504 1504 1504 1503 1503 1503 1502 1502 1502 1502 1502 1502 1502 1502 1503 1503 1503 1504 1504 1504 1505 1505 1505 1505 1506 1506 1507 1508 1508 1509 1509 1510 1510
1502 1501 1501 1500 1500 1500 1500 1500 1500 1500 1500 1501 1500 1500 1500 1500 1499 1499 1499 1499 1499 1499 1498 1498 1498 1499 1499 1499 1500 1500 1500 1500 1501 1501 1501 1502 1502 1503 1503 1504 1505 1505 1506
1500 1499 1498 1497 1497 1497 1497 1497 1497 1497 1497 1497 1497 1497 1497 1496 1496 1495 1495 1495 1495 1495 1495 1494 1494 1494 1494 1495 1495 1495 1495 1496 1496 1497 1497 1497 1497 1498 1498 1499 1500 1500 1501
1497 1496 1495 1495 1494 1494 1494 1494 1494 1494 1494 1494 1494 1493 1493 1493 1492 1492 1492 1492 1492 1491 1491 1491 1490 1489 1489 1490 1490 1490 1490 1491 1492 1492 1492 1492 1493 1493 1493 1494 1494 1495 1496
1493 1493 1493 1492 1492 1491 1491 1491 1491 1491 1490 1490 1490 1490 1490 1489 1489 1489 1488 1488 1488 1487 1487 1487 1486 1485 1485 1485 1485 1485 1486 1486 1486 1487 1487 1487 1488 1488 1488 1489 1489 1490 1490
1490 1490 1490 1489 1489 1489 1488 1488 1488 1488 1487 1487 1487 1487 1487 1486 1486 1485 1485 1485 1484 1484 1484 1483 1482 1482 1482 1481 1481 1481 1481 1482 1482 1482 1482 1482 1482 1482 1483 1483 1484 1484 1485
1487 1486 1486 1486 1485 1485 1485 1485 1485 1485 1485 1485 1484 1484 1483 1483 1483 1482 1482 1481 1481 1480 1480 1479 1479 1479 1478 1478 1477 1477 1477 1477 1477 1477 1477 1477 1477 1477 1477 1478 1478 1479 1479
1484 1483 1483 1482 1482 1482 1481 1481 1481 1481 1481 1481 1480 1480 1480 1480 1479 1478 1478 1478 1477 1476 1476 1475 1475 1474 1474 1474 1473 1473 1472 1472 1472 1472 1472 1472 1471 1471 1472 1472 1472 1473 1474
1481 1480 1479 1478 1478 1478 1478 1477 1477 1477 1477 1477 1476 1476 1476 1476 1475 1475 1474 1474 1473 1472 1472 1471 1471 1471 1470 1469 1469 1468 1468 1468 1467 1467 1467 1466 1466 1466 1466 1467 1467 1468 1468
1477 1476 1476 1475 1474 1474 1474 1474 1474 1473 1473 1472 1472 1472 1472 1472 1471 1471 1470 1470 1469 1468 1467 1467 1467 1467 1466 1465 1465 1464 1463 1463 1463 1462 1462 1462 1461 1461 1461 1461 1462 1462 1463
1473 1473 1472 1471 1471 1470 1470 1470 1470 1469 1469 1469 1469 1468 1468 1467 1467 1467 1466 1466 1465 1464 1464 1463 1463 1462 1462 1461 1461 1460 1459 1459 1458 1458 1457 1457 1457 1457 1457 1457 1457 1457 1457
1469 1468 1468 1467 1467 1466 1466 1465 1465 1465 1465 1465 1465 1464 1464 1464 1463 1463 1462 1462 1461 1461 1460 1459 1458 1458 1457 1457 1456 1455 1455 1454 1454 1453 1453 1452 1452 1453 1453 1452 1452 1452 1452
1465 1464 1463 1463 1463 1463 1462 1462 1461 1461 1461 1461 1460 1460 1460 1459 1459 1458 1458 1457 1457 1456 1456 1455 1454 1453 1453 1452 1451 1451 1450 1450 1449 1449 1449 1448 1448 1448 1448 1448 1448 1447 1447
1461 1460 1459 1459 1459 1458 1458 1458 1458 1457 1457 1457 1456 1456 1455 1455 1455 1454 1454 1453 1452 1452 1451 1451 1450 1449 1448 1448 1447 1446 1446 1445 1445 1444 1444 1444 1443 1443 1443 1443 1443 1443 1442
1457 1456 1456 1455 1455 1454 1454 1454 1454 1453 1453 1453 1452 1452 1451 1451 1450 1450 1449 1449 1448 1447 1447 1446 1445 1444 1444 1443 1442 1442 1441 1441 1440 1440 1439 1439 1438 1438 1438 1438 1438 1438 1437
1453 1452 1452 1451 1451 1450 1450 1450 1450 1449 1449 1449 1448 1448 1447 1446 1446 1445 1444 1444 1443 1442 1442 1441 1440 1439 1439 1438 1438 1437 1436 1436 1435 1435 1435 1434 1434 1434 1433 1433 1433 1433 1433
1449 1448 1448 1447 1447 1447 1446 1446 1446 1445 1445 1444 1444 1443 1443 1442 1441 1440 1440 1439 1438 1437 1437 1436 1435 1434 1433 1433 1432 1432 1431 1430 1430 1430 1430 1429 1429 1429 1428 1428 1428 1427 1427
1445 1444 1444 1443 1443 1443 1442 1442 1442 1441 1441 1440 1439 1439 1438 1437 1436 1435 1435 1434 1433 1432 1431 1430 1430 1429 1428 1427 1427 1426 1425 1425 1425 1424 1424 1424 1423 1423 1423 1423 1422 1422 1422